Terminal Aerodrome Forecast
Issued by NWS Kansas City/Pleasant Hill, MO

Home | Current Version | Previous Version | Text Only | Print | Product List | Glossary On
Versions: 1 2 3 4 5 6 7 8 9 10 11 12 13 14 15 16
000
FTUS43 KEAX 101700
TAFMCI
TAF
KMCI 101720Z 1018/1118 15012KT P6SM SCT200
     FM110800 16010KT P6SM VCTS BKN060CB
     FM111300 17011KT P6SM SCT060=

USA.gov is the U.S. government's official web portal to all federal, state and local government web resources and services.